[Iaude] MPEC V137: 2016 JV24 [a=1.47,e=0.48,i=30.4,H=23.87]
    mpec at marsden.cfa.harvard.edu 
    mpec at marsden.cfa.harvard.edu
       
    Thu Nov  9 09:24:57 EST 2023
    
    
  
M.P.E.C. 2023-V137                             Issued 2023 November 9, 14:23 UT
     The Minor Planet Electronic Circulars contain information on unusual
         minor planets, routine data on comets and natural satellites,
         and occasional editorial announcements.  They are published
    on behalf of Division F of the International Astronomical Union by the
          Minor Planet Center, Smithsonian Astrophysical Observatory,
                          Cambridge, MA 02138, U.S.A.
			  
             Prepared using the Tamkin Foundation Computer Network
                              MPC at CFA.HARVARD.EDU
            URL https://www.minorplanetcenter.net/    ISSN 1523-6714
                                   2016 JV24                                    
                           Revision to MPEC 2016-J110                           
Additional Observations:
     K16J24V  C2023 11 08.24591 02 59 56.00 +28 06 35.2          20.2 GVEV137703
     K16J24V  C2023 11 08.25177 02 59 55.24 +28 04 36.1          20.0 GVEV137703
     K16J24V  C2023 11 08.93129 02 58 51.11 +24 25 43.9          19.7 GVEV137K88
     K16J24V  C2023 11 08.93576 02 58 50.66 +24 24 20.2          19.8 GVEV137K88
     K16J24V 1C2023 11 08.96402 02 58 48.10 +24 15 34.5          20.3 VXEV137033
     K16J24V 1C2023 11 08.96481 02 58 48.02 +24 15 19.6          19.9 VXEV137033
     K16J24V 1C2023 11 08.96525 02 58 47.97 +24 15 11.3          20.1 VXEV137033
     K16J24V KC2023 11 08.97057302 58 46.84 +24 13 36.5          19.7 RoEV137K88
     K16J24V KC2023 11 08.97192102 58 47.07 +24 13 15.7          19.4 GVEV137L01
     K16J24V KC2023 11 08.97290802 58 46.99 +24 12 57.2          19.4 GVEV137L01
     K16J24V KC2023 11 08.97349302 58 46.51 +24 12 42.6          19.7 RoEV137K88
     K16J24V KC2023 11 08.97389602 58 46.86 +24 12 39.0          19.5 GVEV137L01
     K16J24V KC2023 11 08.97513202 58 46.67 +24 12 16.1          19.6 GVEV137L01
     K16J24V KC2023 11 08.97690802 58 46.08 +24 11 39.9          19.5 RoEV137K88
Observer details:
033 Karl Schwarzschild Observatory, Tautenburg.  Observers S. Melnikov, C.
    Hogner, F. Ludwig, M. Hartmann, B. Stecklum.  Measurer B. Stecklum.
    1.34-m f/3 Schmidt + CCD.
703 Catalina Sky Survey.  Observer G. J. Leonard.  Measurers B. Gray, D.
    Rankin, F. C. Shelly.  0.68-m Schmidt + 10K CCD.
K88 GINOP-KHK, Piszkesteto.  Observer K. Sarneczky.  0.60-m Schmidt + CCD.
L01 Visnjan Observatory, Tican.  Observer K. Korlevic.  1.0-m f/2.9 reflector
    + CCD.
First and last observations above in comparison with prediction:
Residuals in seconds of arc (or zero decimals in degrees), reference and Delta-T
231108 703   42-   23-    231108 K88   43-   20-    MPO378550   -13.0 days
Orbital elements:
2016 JV24                                                Earth MOID = 0.0869 AU
Epoch 2023 Sept. 13.0 TT = JDT 2460200.5                Veres                   
M   3.37408              (2000.0)            P               Q                  
n   0.55219811     Peri.   92.64674     +0.66586912     +0.64599504             
a   1.4714294      Node   227.46392     -0.70429096     +0.70932764             
e   0.4771902      Incl.   30.43327     +0.24615555     +0.28203670             
P   1.78           H   23.87          G   0.15           U   2                  
Residuals in seconds of arc
160509 G96  0.3+  1.0+    160510 926  0.3+  0.0     160511 I52  0.3-  0.6-
160509 G96  0.4+  1.1+    160510 926  0.0   0.0     160511 I52  0.0   0.7-
160509 G96  0.1+  0.4+    160510 G45  0.2+  0.4+    160516 926  0.2+  0.3+
160509 G96  0.2+  0.9+    160510 926  0.1-  0.1+    160516 926  0.3-  0.5-
160509 I52  0.7-  1.2-    160510 926  0.3-  0.3+    160516 926  0.0   0.3+
160509 G96  0.2-  0.5+    160510 G45  0.8+  0.1-    160516 705  0.6-  0.8+
160509 G96  0.1-  0.7+    160510 926  0.1-  0.2+    160516 705  0.4-  1.0-
160509 G96  0.3+  0.7+    160510 926  0.1+  0.1+    160516 705  0.7-  0.7+
160509 G96  0.4+  0.8+    160510 926  0.0   0.3-    231108 703  0.4-  0.3+
160509 G96  0.4+  0.3+    160510 926  0.3-  0.2-    231108 703  0.3-  1.7-
160509 G96  0.2+  0.5+    160510 926  0.1-  0.5-    231108 K88  0.5-  0.4+
160509 G96  0.1+  0.4+    160511 033  0.1+  0.8+    231108 K88  0.1+  0.4-
160509 G96  0.2+  0.1-    160511 033  0.1-  0.2+    231108 033  0.0   0.5+
160509 246  0.9+  0.5-    160511 033  0.2-  0.7+    231108 033  0.0   0.2+
160509 246  0.8-  0.8-    160511 033  0.1+  1.1+    231108 033  0.0   0.0
160509 246  0.2+  0.8+    160511 033  0.2-  0.1+    231108 K88  0.6+  0.2-
160510 691  0.2+  0.3-    160511 691  0.5+  1.0-    231108 L01  0.1+  0.4+
160510 H01  0.0   0.1+    160511 691  0.9+  2.2-    231108 L01  0.5+  0.1+
160510 H01  0.0   0.1+    160511 926  0.3+  0.4+    231108 K88  0.4+  0.2-
160510 691  0.1-  0.2-    160511 926  0.1+  0.4+    231108 L01  0.2+  0.2+
160510 H01  0.1+  0.1+    160511 926  0.0   0.3+    231108 L01  0.5-  0.1+
160510 H01  0.0   0.0     160511 691  0.4+  0.5+    231108 K88  0.4-  0.2+
160510 G45  0.3-  0.3+    160511 I52  0.8-  0.4-
160510 G45  0.0   0.1+    160511 I52  0.9-  0.8-
Ephemeris:
2016 JV24                a,e,i = 1.47, 0.48, 30                  q = 0.7693
Date    TT    R. A. (2000) Decl.     Delta      r    Elong.  Phase     V
2023 10 10    14 37 12.3 +48 39 38   0.2929  0.8845    59.0   104.5    24.8
...
2023 10 25    14 17 25.5 +70 49 04   0.1455  0.9868    82.7    88.9    22.8
...
2023 11 02    03 29 52.7 +70 41 43   0.09371 1.0464   123.0    52.7    20.8
...
2023 11 08    03 00 19.2 +29 30 22   0.1037  1.0922   166.6    12.1    19.9
2023 11 09    02 58 45.2 +24 05 22   0.1100  1.0998   172.5     6.8    19.8
2023 11 10    02 57 28.1 +19 17 11   0.1171  1.1075   177.6     2.1    19.7
...
2023 11 16    02 53 04.0 +00 38 43   0.1729  1.1537   160.7    16.5    21.3
...
2023 11 24    02 51 23.4 -09 48 07   0.2639  1.2151   145.9    27.1    22.6
...
2023 12 09    02 54 11.2 -15 36 11   0.4549  1.3275   130.8    34.2    24.2
A. U. Tomatic                (C) Copyright 2023 MPC           M.P.E.C. 2023-V137
    
    
More information about the Iaude
mailing list